Volver al catálogo

CZ-6A DEB

ActivoSSO
NORAD 56642·DEBRIS·🇨🇳 China

Lanzado Nov 11, 2022 desde Taiyuan Satellite Launch Center

Loading…

Próximos Pases (próximas 24 horas)

TLE

ActualizadoSource: Space-Track

Época: Sep 14, 2026, 03:49 UTC

1 56642U 22151AFS 26257.15914538  .00000027  00000-0  50127-4 0  9990
2 56642  98.9253 220.8253 0126334 202.5367 157.0216 13.93375030172317

Sigue CZ-6A DEB en tiempo real con AllMySat

Download on the App Store